Tracking 19638 objects as of 18-Apr-2019
HD Live streaming from Space Station
objects crossing your sky now

CZ-4 DEB

Track CZ-4 DEB now!
10-day predictions


NORAD ID: 27678
Int'l Code: 1999-057MS
Perigee: 712.4 km
Apogee: 869.3 km
Inclination: 98.7 °
Period: 100.5 minutes
Semi major axis: 7161 km
RCS: 0.0002 m2 (small)
Launch date: October 14, 1999
Source: People's Republic of China (PRC)
Launch site: Taiyaun Space Center, China (TSC)

Note: This is SATELLITE DEBRIS
aabbcc
Your satellite tracking list
Your tracking list is empty




NASA's NSSDC Master Catalog

Two Line Element Set (TLE):
1 27678U 99057MS  19102.68340340 +.00000019 +00000-0 +22444-4 0  9991
2 27678 098.7029 052.9527 0109589 148.9019 334.3734 14.32405070881641
Source of the keplerian elements: AFSPC